| time (UTC) | temp F | wind direction | speed knots | gust knots | rain 1hr in | rain 24hr in | rain mn in | humidity % | barometer mb |
| 20260504100115 | 56 | 198 | 0.0 | 1.7 | 0.05 | 0.12 | 0.12 | 90 | 1010.9 |
| 20260504081556 | 59 | 190 | 8.7 | 18.2 | 0.01 | 0.01 | 0.01 | 80 | 1009.6 |
| 20260504044535 | 58 | 144 | 0.0 | 4.3 | 0.00 | 0.00 | 0.00 | 66 | 1011.9 |
| 20260504043017 | 59 | 188 | 0.9 | 7.0 | 0.00 | 0.00 | 0.00 | 65 | 1011.8 |
| 20260504041509 | 58 | 174 | 0.9 | 5.2 | 0.00 | 0.00 | 0.00 | 69 | 1011.9 |
| 20260504040057 | 58 | 178 | 0.0 | 5.2 | 0.00 | 0.00 | 0.00 | 70 | 1012.2 |
| 20260504034555 | 58 | 199 | 0.9 | 6.1 | 0.00 | 0.00 | 0.00 | 70 | 1012.9 |
| 20260504033029 | 59 | 207 | 1.7 | 5.2 | 0.00 | 0.00 | 0.00 | 65 | 1013.3 |
| 20260504031528 | 59 | 191 | 1.7 | 4.3 | 0.00 | 0.00 | 0.00 | 65 | 1012.9 |
| 20260504030009 | 58 | 151 | 0.0 | 0.9 | 0.00 | 0.00 | 0.00 | 66 | 1012.9 |
| 20260504024506 | 59 | 154 | 0.0 | 0.0 | 0.00 | 0.00 | 0.00 | 64 | 1013.4 |
| 20260504023048 | 59 | 154 | 0.0 | 1.7 | 0.00 | 0.00 | 0.00 | 64 | 1013.1 |
| 20260504021548 | 60 | 184 | 0.0 | 3.5 | 0.00 | 0.00 | 0.00 | 64 | 1013.1 |
| 20260504020037 | 60 | 152 | 0.0 | 0.0 | 0.00 | 0.00 | 0.00 | 64 | 1012.9 |
| 20260504014536 | 60 | 158 | 0.0 | 4.3 | 0.00 | 0.00 | 0.00 | 60 | 1012.9 |
| 20260504013017 | 61 | 168 | 0.9 | 3.5 | 0.00 | 0.00 | 0.00 | 60 | 1012.5 |
| 20260504011512 | 61 | 161 | 0.0 | 3.5 | 0.00 | 0.00 | 0.00 | 59 | 1012.5 |
| 20260504010054 | 62 | 166 | 0.0 | 4.3 | 0.00 | 0.00 | 0.00 | 56 | 1012.6 |
| 20260504004554 | 63 | 175 | 0.0 | 6.1 | 0.00 | 0.00 | 0.00 | 54 | 1012.6 |
| 20260504003035 | 64 | 164 | 1.7 | 7.8 | 0.00 | 0.00 | 0.00 | 53 | 1012.5 |
| 20260504001536 | 64 | 179 | 2.6 | 7.0 | 0.00 | 0.00 | 0.00 | 52 | 1012.7 |
| 20260504000015 | 65 | 232 | 3.5 | 8.7 | 0.00 | 0.00 | 0.00 | 52 | 1012.9 |
| 20260503234518 | 65 | 193 | 5.2 | 8.7 | 0.00 | 0.00 | 0.00 | 51 | 1013.2 |
| 20260503233056 | 66 | 215 | 4.3 | 10.4 | 0.00 | 0.00 | 0.00 | 51 | 1013.4 |
| 20260503231601 | 66 | 201 | 5.2 | 13.9 | 0.00 | 0.00 | 0.00 | 51 | 1013.5 |
| 20260503230038 | 66 | 233 | 7.0 | 13.9 | 0.00 | 0.00 | 0.00 | 48 | 1013.6 |
| 20260503224540 | 66 | 211 | 6.1 | 16.5 | 0.00 | 0.00 | 0.00 | 49 | 1013.4 |
| 20260503223020 | 66 | 187 | 6.1 | 13.0 | 0.00 | 0.00 | 0.00 | 50 | 1013.0 |
| 20260503221518 | 66 | 203 | 9.6 | 16.5 | 0.00 | 0.00 | 0.00 | 50 | 1012.9 |
| 20260503220118 | 66 | 178 | 9.6 | 16.5 | 0.00 | 0.00 | 0.00 | 50 | 1013.0 |
| 20260503214557 | 66 | 196 | 6.1 | 16.5 | 0.00 | 0.00 | 0.00 | 53 | 1013.2 |
| 20260503213102 | 66 | 225 | 8.7 | 16.5 | 0.00 | 0.00 | 0.00 | 53 | 1013.4 |
| 20260503211548 | 65 | 221 | 10.4 | 18.2 | 0.00 | 0.00 | 0.00 | 51 | 1014.0 |
| 20260503210034 | 65 | 207 | 7.8 | 14.8 | 0.00 | 0.00 | 0.00 | 54 | 1014.2 |
| 20260503204514 | 65 | 197 | 7.8 | 16.5 | 0.00 | 0.00 | 0.00 | 54 | 1014.4 |
| 20260503203012 | 65 | 189 | 7.8 | 15.6 | 0.00 | 0.00 | 0.00 | 54 | 1015.0 |
| 20260503201551 | 64 | 212 | 6.1 | 13.0 | 0.00 | 0.00 | 0.00 | 55 | 1015.5 |
| 20260503200058 | 63 | 190 | 9.6 | 19.1 | 0.00 | 0.00 | 0.00 | 53 | 1015.8 |
| 20260503194530 | 64 | 207 | 7.8 | 18.2 | 0.00 | 0.00 | 0.00 | 55 | 1016.4 |
| 20260503193033 | 64 | 200 | 7.8 | 17.4 | 0.00 | 0.00 | 0.00 | 55 | 1016.8 |
| 20260503191516 | 64 | 208 | 8.7 | 16.5 | 0.00 | 0.00 | 0.00 | 54 | 1017.1 |
| 20260503190008 | 63 | 175 | 8.7 | 19.1 | 0.00 | 0.00 | 0.00 | 55 | 1017.4 |
| 20260503184559 | 63 | 246 | 8.7 | 17.4 | 0.00 | 0.00 | 0.00 | 56 | 1017.5 |
| 20260503183047 | 63 | 196 | 7.8 | 15.6 | 0.00 | 0.00 | 0.00 | 58 | 1017.7 |
| 20260503181527 | 62 | 212 | 8.7 | 16.5 | 0.00 | 0.00 | 0.00 | 57 | 1018.0 |
| 20260503180041 | 62 | 240 | 7.0 | 13.0 | 0.00 | 0.00 | 0.00 | 58 | 1018.6 |
| 20260503174504 | 61 | 238 | 8.7 | 17.4 | 0.00 | 0.00 | 0.00 | 59 | 1019.0 |
| 20260503173001 | 61 | 161 | 7.8 | 13.9 | 0.00 | 0.00 | 0.00 | 62 | 1019.5 |
| 20260503171541 | 60 | 218 | 7.0 | 13.0 | 0.00 | 0.00 | 0.00 | 62 | 1020.0 |